CW1621 Weather Reports


time (UTC)temp
F
wind
direction
speed
knots
gust
knots
rain 1hr
in
rain 24hr
in
rain mn
in
humidity
%
barometer
mb
20260505153103 54 103 6.1 10.4 0.00 0.00 0.00 60 1014.2
20260505152603 54 102 7.8 10.4 0.00 0.00 0.00 61 1014.2
20260505152103 54 109 7.8 10.4 0.00 0.00 0.00 60 1014.2
20260505151603 53 100 7.8 10.4 0.00 0.00 0.00 61 1014.2
20260505140603 51 100 7.8 10.4 0.00 0.00 0.00 68 1012.9
20260505130103 47 130 5.2 6.1 0.00 0.00 0.00 72 1012.9
20260505124603 46 155 3.5 4.3 0.00 0.00 0.00 74 1012.9
20260505123603 44 165 4.3 5.2 0.00 0.00 0.00 77 1013.0
20260505122603 44 155 2.6 4.3 0.00 0.00 0.00 76 1012.9
20260505122104 45 136 2.6 4.3 0.00 0.00 0.00 75 1012.9
20260505121603 45 121 3.5 4.3 0.00 0.00 0.00 74 1012.8
20260505120603 46 102 2.6 4.3 0.00 0.00 0.00 73 1012.4
20260505115603 48 96 7.8 8.7 0.00 0.00 0.00 70 1012.3
20260505115104 48 93 7.8 10.4 0.00 0.00 0.00 70 1012.3
20260505114603 48 93 7.8 10.4 0.00 0.00 0.00 69 1012.3
20260505114103 48 90 8.7 10.4 0.00 0.00 0.00 69 1012.2
20260505113603 48 89 7.8 10.4 0.00 0.00 0.00 69 1012.1
20260505113104 49 87 7.8 10.4 0.00 0.00 0.00 67 1012.0
20260505112102 49 88 7.0 7.8 0.00 0.00 0.00 68 1012.0
20260505111103 49 86 7.0 8.7 0.00 0.00 0.00 68 1011.8
20260505102103 51 119 4.3 4.3 0.00 0.00 0.00 71 1011.2
20260505101603 51 119 2.6 4.3 0.00 0.00 0.00 71 1011.1
20260505101103 50 122 2.6 2.6 0.00 0.00 0.00 71 1011.1
20260505100603 50 124 2.6 2.6 0.00 0.00 0.00 69 1011.4
20260505095602 52 88 7.8 8.7 0.00 0.00 0.00 66 1011.0
20260505095103 52 83 6.1 10.4 0.00 0.00 0.00 67 1010.9
20260505094603 52 78 7.8 10.4 0.00 0.00 0.00 66 1010.9
20260505094103 52 79 9.6 10.4 0.00 0.00 0.00 67 1010.9
20260505093603 52 80 8.7 10.4 0.00 0.00 0.00 68 1010.9
20260505093103 51 83 8.7 10.4 0.00 0.00 0.00 69 1011.2
20260505092603 51 88 7.8 10.4 0.00 0.00 0.00 70 1011.1
20260505092103 51 84 7.8 10.4 0.00 0.00 0.00 70 1011.1
20260505091602 52 87 6.1 8.7 0.00 0.00 0.00 70 1010.9
20260505091103 53 84 7.8 8.7 0.00 0.00 0.00 68 1010.9
20260505090603 53 84 7.8 8.7 0.00 0.00 0.00 67 1010.8
20260505085603 52 92 5.2 5.2 0.00 0.00 0.00 70 1010.9
20260505085103 52 92 4.3 6.1 0.00 0.00 0.00 71 1010.9
20260505084603 51 92 5.2 6.1 0.00 0.00 0.00 73 1011.1
20260505084104 51 92 2.6 4.3 0.00 0.00 0.00 71 1011.1
20260505083603 53 90 6.1 8.7 0.00 0.00 0.00 69 1011.0
20260505083103 53 90 7.8 8.7 0.00 0.00 0.00 70 1011.0
20260505082603 51 93 6.1 7.8 0.00 0.00 0.00 72 1011.1
20260505082103 51 101 5.2 6.1 0.00 0.00 0.00 73 1011.2
20260505081603 51 101 5.2 6.1 0.00 0.00 0.00 73 1010.9
20260505080603 51 105 4.3 4.3 0.00 0.00 0.00 75 1011.1
20260505080103 52 105 2.6 4.3 0.00 0.00 0.00 74 1010.8
20260505075603 52 105 4.3 4.3 0.00 0.00 0.00 73 1010.8
20260505075103 53 105 4.3 5.2 0.00 0.00 0.00 72 1010.8
20260505074103 53 96 6.1 7.0 0.00 0.00 0.00 70 1010.8
20260505073603 53 96 6.1 7.0 0.00 0.00 0.00 70 1010.8
20260505073103 53 96 7.0 7.8 0.00 0.00 0.00 70 1010.9
20260505072603 54 96 6.1 7.8 0.00 0.00 0.00 69 1010.6
20260505071603 55 92 7.8 8.7 0.00 0.00 0.00 68 1010.6
20260505071104 55 92 7.0 8.7 0.00 0.00 0.00 66 1010.8
20260505070603 56 92 6.1 7.8 0.00 0.00 0.00 66 1010.8
20260505065603 55 101 6.1 7.8 0.00 0.00 0.00 68 1010.9
20260505065104 55 100 6.1 8.7 0.00 0.00 0.00 68 1010.7
20260505064603 55 100 5.2 7.0 0.00 0.00 0.00 70 1010.8
20260505064103 55 101 4.3 5.2 0.00 0.00 0.00 70 1010.7
20260505062603 55 104 5.2 6.1 0.00 0.00 0.00 70 1010.6
20260505061603 54 109 5.2 7.0 0.00 0.00 0.00 73 1010.6
20260505061103 54 106 6.1 7.8 0.00 0.00 0.00 72 1010.6
20260505060603 55 98 5.2 8.7 0.00 0.00 0.00 71 1010.6
20260505060103 56 96 7.8 8.7 0.00 0.00 0.00 69 1010.6
20260505055603 56 90 6.1 8.7 0.00 0.00 0.00 69 1010.5
20260505055103 56 88 7.0 8.7 0.00 0.00 0.00 70 1010.5
20260505054603 56 87 7.8 8.7 0.00 0.00 0.00 70 1010.6
20260505054102 56 89 7.8 10.4 0.00 0.00 0.00 70 1010.5
20260505053604 57 89 8.7 10.4 0.00 0.00 0.00 69 1010.2
20260505052603 57 82 8.7 10.4 0.00 0.00 0.00 67 1010.2
20260505052102 58 81 8.7 10.4 0.00 0.00 0.00 67 1010.2
20260505051603 58 81 8.7 10.4 0.00 0.00 0.00 67 1010.2
20260505051103 58 78 8.7 11.3 0.00 0.00 0.00 68 1010.0
20260505050603 58 81 7.8 10.4 0.00 0.00 0.00 69 1009.7
20260505041603 59 99 6.1 8.7 0.00 0.00 0.00 66 1009.0
20260505041103 60 82 7.8 10.4 0.00 0.00 0.00 64 1008.7
20260505040603 60 75 7.0 8.7 0.00 0.00 0.00 62 1008.5
20260505040103 61 63 6.1 10.4 0.00 0.00 0.00 61 1008.4
20260505035603 61 41 7.8 10.4 0.00 0.00 0.00 60 1008.2
20260505035103 62 29 8.7 11.3 0.00 0.00 0.00 59 1008.1
20260505034602 63 25 6.1 10.4 0.00 0.00 0.00 55 1007.9
20260505033603 63 350 2.6 6.1 0.00 0.00 0.00 51 1007.8
20260505033103 63 344 2.6 4.3 0.00 0.00 0.00 52 1007.6
20260505032603 63 341 1.7 2.6 0.00 0.00 0.00 53 1007.5
20260505032103 63 293 1.7 5.2 0.00 0.00 0.00 54 1007.4
20260505031603 63 288 4.3 5.2 0.00 0.00 0.00 55 1007.4
20260505031104 63 287 2.6 4.3 0.00 0.00 0.00 56 1007.5
20260505030604 63 289 2.6 4.3 0.00 0.00 0.00 55 1007.9
20260505030103 63 322 1.7 2.6 0.00 0.00 0.00 55 1007.9
20260505025603 64 301 1.7 2.6 0.00 0.00 0.00 55 1007.8
20260505025103 64 297 0.9 2.6 0.00 0.00 0.00 56 1007.8
20260505024603 65 289 2.6 2.6 0.00 0.00 0.00 55 1007.5
20260505024103 65 333 1.7 2.6 0.00 0.00 0.00 55 1007.4
20260505023604 66 315 1.7 4.3 0.00 0.00 0.00 54 1007.4
20260505023104 67 285 2.6 4.3 0.00 0.00 0.00 53 1007.2
20260505021603 68 287 3.5 7.8 0.00 0.00 0.00 51 1007.2
20260505021102 68 286 4.3 7.0 0.00 0.00 0.00 52 1008.1
20260505020103 68 298 3.5 7.8 0.00 0.00 0.00 51 1008.2
20260505015103 68 306 5.2 10.4 0.00 0.00 0.00 51 1008.2
20260505014603 68 281 4.3 6.1 0.00 0.00 0.00 52 1008.2
20260505014103 68 301 4.3 7.8 0.00 0.00 0.00 50 1008.2
20260505013603 69 299 5.2 11.3 0.00 0.00 0.00 51 1008.2
20260505013103 69 288 6.1 12.2 0.00 0.00 0.00 50 1008.2
20260505012603 69 302 5.2 11.3 0.00 0.00 0.00 50 1008.2
20260505012103 70 293 8.7 12.2 0.00 0.00 0.00 48 1007.9
20260505011603 70 291 6.1 14.8 0.00 0.00 0.00 49 1008.0
20260505011103 70 293 7.8 13.0 0.00 0.00 0.00 49 1008.1
20260505005603 71 313 4.3 10.4 0.00 0.00 0.00 47 1008.3
20260505004103 70 297 6.1 14.8 0.00 0.00 0.00 50 1008.4
20260505003603 71 289 8.7 12.2 0.00 0.00 0.00 48 1008.4
20260505003103 71 301 6.1 11.3 0.00 0.00 0.00 48 1008.4
20260505002602 71 284 5.2 14.8 0.00 0.00 0.00 52 1008.4
20260505002103 71 284 7.8 14.8 0.00 0.00 0.00 48 1008.4
20260505001603 71 295 5.2 13.0 0.00 0.00 0.00 49 1008.4
20260505001103 71 293 8.7 14.8 0.00 0.00 0.00 49 1008.4
20260505000603 71 296 7.0 11.3 0.00 0.00 0.00 48 1008.6
20260504235603 72 313 4.3 7.8 0.00 0.00 0.00 47 1008.4
20260504235103 71 296 5.2 14.8 0.00 0.00 0.00 48 1008.7
20260504233603 72 291 7.8 12.2 0.00 0.00 0.00 47 1008.3
20260504233103 72 293 6.1 12.2 0.00 0.00 0.00 49 1008.3
20260504232103 72 293 7.8 12.2 0.00 0.00 0.00 49 1008.4
20260504231603 71 321 5.2 12.2 0.00 0.00 0.00 50 1008.7
20260504230604 72 308 4.3 10.4 0.00 0.00 0.00 51 1008.3
20260504225604 71 298 7.0 10.4 0.00 0.00 0.00 51 1008.4
20260504225103 71 293 4.3 12.2 0.00 0.00 0.00 52 1008.4
20260504224603 70 289 7.8 15.6 0.00 0.00 0.00 53 1008.7
20260504224103 70 282 11.3 14.8 0.00 0.00 0.00 51 1008.7
20260504223103 71 289 6.1 11.3 0.00 0.00 0.00 51 1008.5
20260504222603 71 300 6.1 13.9 0.00 0.00 0.00 52 1008.6
20260504222103 70 290 8.7 12.2 0.00 0.00 0.00 52 1008.9
20260504221603 70 294 6.1 11.3 0.00 0.00 0.00 52 1008.9
20260504221103 70 290 7.8 13.0 0.00 0.00 0.00 50 1009.1
20260504220603 69 288 6.1 12.2 0.00 0.00 0.00 51 1009.8
20260504215103 71 298 6.1 14.8 0.00 0.00 0.00 52 1009.7
20260504213103 71 310 4.3 7.8 0.00 0.00 0.00 50 1009.8
20260504212603 71 313 2.6 8.7 0.00 0.00 0.00 49 1009.9
20260504212102 70 296 7.8 11.3 0.00 0.00 0.00 50 1009.8
20260504211603 71 295 6.1 12.2 0.00 0.00 0.00 51 1009.8
20260504211103 70 308 6.1 11.3 0.00 0.00 0.00 51 1010.0
20260504210602 68 285 7.8 13.9 0.00 0.00 0.00 55 1010.4
20260504205603 71 289 8.7 12.2 0.00 0.00 0.00 50 1010.3
20260504205103 71 293 2.6 10.4 0.00 0.00 0.00 50 1010.3
20260504204603 71 291 3.5 8.7 0.00 0.00 0.00 50 1010.4
20260504204104 70 326 4.3 8.7 0.00 0.00 0.00 51 1010.4
20260504203603 70 309 5.2 13.0 0.00 0.00 0.00 53 1010.3
20260504203104 70 310 5.2 8.7 0.00 0.00 0.00 51 1010.4
20260504202603 69 311 4.3 17.4 0.00 0.00 0.00 52 1010.6
20260504201603 71 298 4.3 8.7 0.00 0.00 0.00 50 1010.5
20260504201104 70 296 4.3 7.8 0.00 0.00 0.00 52 1010.3
20260504195603 69 357 4.3 10.4 0.00 0.00 0.00 51 1010.4
20260504195103 68 283 7.0 11.3 0.00 0.00 0.00 52 1010.4
20260504194603 67 279 8.7 13.9 0.00 0.00 0.00 55 1010.7
20260504194104 67 280 9.6 13.9 0.00 0.00 0.00 50 1010.8
20260504193603 67 290 10.4 13.9 0.00 0.00 0.00 50 1010.8
20260504193103 68 285 8.7 13.9 0.00 0.00 0.00 50 1010.6
20260504192103 67 284 7.8 13.9 0.00 0.00 0.00 50 1010.6
20260504191602 67 283 12.2 13.9 0.00 0.00 0.00 51 1010.7
20260504191103 66 288 8.7 13.9 0.00 0.00 0.00 50 1010.9
20260504190603 66 280 10.4 14.8 0.00 0.00 0.00 50 1011.1
20260504185603 66 268 11.3 14.8 0.00 0.00 0.00 49 1011.0
20260504185103 66 277 9.6 13.9 0.00 0.00 0.00 49 1011.1
20260504184603 66 271 9.6 13.0 0.00 0.00 0.00 49 1011.2
20260504184103 67 277 8.7 12.2 0.00 0.00 0.00 48 1011.2
20260504183603 67 286 6.1 12.2 0.00 0.00 0.00 47 1011.2
20260504183103 67 290 5.2 8.7 0.00 0.00 0.00 47 1011.2
20260504182603 67 288 6.1 10.4 0.00 0.00 0.00 47 1011.2
20260504182103 66 292 4.3 10.4 0.00 0.00 0.00 50 1011.3
20260504181103 65 279 10.4 14.8 0.00 0.00 0.00 46 1011.4
20260504180603 65 282 9.6 14.8 0.00 0.00 0.00 47 1011.1
20260504180103 65 260 10.4 12.2 0.00 0.00 0.00 48 1011.1
20260504175604 65 277 8.7 11.3 0.00 0.00 0.00 49 1011.2
20260504175103 65 264 10.4 14.8 0.00 0.00 0.00 46 1011.3
20260504174602 65 269 8.7 12.2 0.00 0.00 0.00 46 1011.0
20260504174103 66 292 4.3 10.4 0.00 0.00 0.00 48 1010.9
20260504173603 65 286 7.8 13.0 0.00 0.00 0.00 47 1011.2
20260504173103 66 285 6.1 12.2 0.00 0.00 0.00 47 1011.0
20260504172603 67 263 2.6 11.3 0.00 0.00 0.00 47 1010.9
20260504172103 68 269 2.6 11.3 0.00 0.00 0.00 49 1010.8
20260504171603 68 275 6.1 8.7 0.00 0.00 0.00 41 1010.8
20260504171103 69 341 2.6 5.2 0.00 0.00 0.00 46 1010.7
20260504170603 69 336 2.6 6.1 0.00 0.00 0.00 46 1010.5